Villas, NJ

7:41 PM EDT on September 25, 2016 (GMT -0400)
Cape May County

Weather History for KWWD - February, 2013

Change the Weather History Date:

Friday, February 1, 2013

  Actual Average Record
Temperature  
Mean Temperature 28 °F -  
Max Temperature 33 °F 39 °F 73 °F (2002)
Min Temperature 23 °F 27 °F 17 °F (1999)
Degree Days  
Heating Degree Days 37    
Moisture  
Dew Point 13 °F    
Average Humidity 53    
Maximum Humidity 86    
Minimum Humidity 40    
Precipitation  
Precipitation 0.00 in - - ()
Sea Level Pressure  
Sea Level Pressure 30.05 in    
Wind  
Wind Speed 12 mph (WNW)    
Max Wind Speed 21 mph    
Max Gust Speed 33 mph    
Visibility 7 miles    
Events      
Averages and records for this station are not official NWS values.
T = Trace of Precipitation, MM = Missing Value Source: NWS Daily Summary

Daily Weather History Graph

Daily Weather History Graph

Search for Another Location

Airport or City:

Trip Planner

Search our weather history database for the weather conditions in past years. The results will help you decide how hot, cold, wet, or windy it might be!

Date:

Astronomy

Feb. 01, 2013 Rise Set
Actual Time 7:05 AM EST 5:21 PM EST
Civil Twilight 6:37 AM EST 5:49 PM EST
Nautical Twilight 6:05 AM EST 6:21 PM EST
Astronomical Twilight 5:34 AM EST 6:52 PM EST
Moon 11:22 PM EST (2/1) 9:41 AM EST (2/1)
Length of Visible Light 11h 11m
Length of Day
10h 15m
Waning Gibbous, 70% of the Moon is Illuminated
Feb 1
Waning Gibbous
Feb 3
Last Quarter
Feb 10
New
Feb 17
First Quarter
Feb 25
Full

Hourly Weather History & Observations

Time (EST) Temp. Windchill Dew Point Humidity Pressure Visibility Wind Dir Wind Speed Gust Speed Precip Events Conditions
12:15 AM 33.8 °F 24.3 °F 12.2 °F 41% 29.92 in 10.0 mi WNW 13.8 mph 24.2 mph N/A   Scattered Clouds
12:35 AM 33.8 °F 23.5 °F 12.2 °F 41% 29.92 in 10.0 mi WNW 16.1 mph 24.2 mph N/A   Partly Cloudy
1:15 AM 33.8 °F 24.3 °F 12.2 °F 41% 29.94 in 10.0 mi WNW 13.8 mph 20.7 mph N/A   Partly Cloudy
1:35 AM 33.8 °F 25.3 °F 12.2 °F 41% 29.93 in 10.0 mi West 11.5 mph 23.0 mph N/A   Partly Cloudy
2:15 AM 32.0 °F 26.4 °F 12.2 °F 44% 29.92 in 10.0 mi West 5.8 mph - N/A   Clear
2:35 AM 32.0 °F 25.6 °F 12.2 °F 44% 29.93 in 10.0 mi West 6.9 mph - N/A   Clear
2:55 AM 32.0 °F 27.5 °F 12.2 °F 44% 29.92 in 10.0 mi West 4.6 mph - N/A   Partly Cloudy
3:15 AM 32.0 °F 26.4 °F 14.0 °F 48% 29.92 in - WSW 5.8 mph - N/A   Mostly Cloudy
3:35 AM 32.0 °F 28.7 °F 15.8 °F 51% 29.91 in - SW 3.5 mph - N/A   Overcast
4:15 AM 30.2 °F 23.4 °F 15.8 °F 55% 29.90 in - South 6.9 mph - N/A   Overcast
4:35 AM 30.2 °F 25.4 °F 15.8 °F 55% 29.89 in - South 4.6 mph - N/A   Mostly Cloudy
5:15 AM 28.4 °F 24.6 °F 17.6 °F 64% 29.87 in - SSE 3.5 mph - N/A   Scattered Clouds
5:35 AM 30.2 °F - 17.6 °F 60% 29.87 in - Calm Calm - N/A   Clear
6:15 AM 30.2 °F - 19.4 °F 64% 29.84 in - Calm Calm - N/A   Overcast
6:35 AM 32.0 °F - 19.4 °F 60% 29.85 in - Calm Calm - N/A   Overcast
6:55 AM 33.8 °F 25.3 °F 21.2 °F 60% 29.86 in - SW 11.5 mph - N/A   Overcast
7:15 AM 32.0 °F 27.5 °F 23.0 °F 69% 29.87 in 3.0 mi West 4.6 mph - N/A   Overcast
7:35 AM 30.2 °F 26.7 °F 24.8 °F 80% 29.87 in - West 3.5 mph - N/A   Overcast
7:55 AM 30.2 °F 25.4 °F 26.6 °F 86% 29.87 in - WNW 4.6 mph - N/A   Overcast
8:15 AM 30.2 °F 26.7 °F 26.6 °F 86% 29.87 in 0.8 mi NW 3.5 mph - N/A   Overcast
8:35 AM 30.2 °F 23.4 °F 26.6 °F 86% 29.87 in 1.0 mi NW 6.9 mph - N/A   Overcast
9:15 AM 30.2 °F 21.3 °F 26.6 °F 86% 29.87 in 0.5 mi NNW 10.4 mph 16.1 mph N/A   Overcast
9:35 AM 28.4 °F 18.0 °F 24.8 °F 86% 29.90 in 0.5 mi NNW 12.7 mph 18.4 mph N/A   Overcast
9:55 AM 28.4 °F 18.0 °F 23.0 °F 80% 29.91 in 0.5 mi NNW 12.7 mph 24.2 mph N/A   Overcast
10:15 AM 26.6 °F 15.7 °F 23.0 °F 86% 29.93 in 0.5 mi NW 12.7 mph 21.9 mph N/A   Overcast
10:35 AM 26.6 °F 15.2 °F 23.0 °F 86% 29.94 in 0.5 mi NW 13.8 mph 23.0 mph N/A   Overcast
10:55 AM 26.6 °F 14.3 °F 21.2 °F 80% 29.95 in 1.0 mi NW 16.1 mph 27.6 mph N/A   Overcast
11:15 AM 26.6 °F 17.5 °F 21.2 °F 80% 29.96 in 0.5 mi NW 9.2 mph 23.0 mph N/A   Overcast
11:35 AM 26.6 °F 13.1 °F 19.4 °F 74% 29.97 in 0.5 mi NW 19.6 mph 26.5 mph N/A   Overcast
11:55 AM 28.4 °F 16.6 °F 15.8 °F 59% 29.98 in 1.5 mi NW 16.1 mph 25.3 mph N/A   Overcast
12:15 PM 28.4 °F 15.4 °F 10.4 °F 47% 29.99 in 3.0 mi WNW 19.6 mph 29.9 mph N/A   Mostly Cloudy
12:35 PM 28.4 °F 15.4 °F 10.4 °F 47% 30.00 in 4.0 mi WNW 19.6 mph 31.1 mph N/A   Mostly Cloudy
12:55 PM 28.4 °F 15.8 °F 6.8 °F 40% 30.01 in 5.0 mi WNW 18.4 mph 27.6 mph N/A   Mostly Cloudy
1:15 PM 28.4 °F 15.8 °F 8.6 °F 43% 30.02 in 5.0 mi NW 18.4 mph 28.8 mph N/A   Overcast
1:35 PM 28.4 °F 15.1 °F 10.4 °F 47% 30.03 in 4.0 mi WNW 20.7 mph 33.4 mph N/A   Scattered Clouds
1:55 PM 28.4 °F 15.4 °F 8.6 °F 43% 30.04 in 7.0 mi WNW 19.6 mph 31.1 mph N/A   Scattered Clouds
2:15 PM 30.2 °F 18.9 °F 8.6 °F 40% 30.05 in 10.0 mi WNW 16.1 mph 28.8 mph N/A   Overcast
2:35 PM 30.2 °F 17.8 °F 8.6 °F 40% 30.05 in 10.0 mi West 19.6 mph 27.6 mph N/A   Overcast
2:55 PM 30.2 °F 17.8 °F 8.6 °F 40% 30.07 in 10.0 mi West 19.6 mph 33.4 mph N/A   Mostly Cloudy
3:15 PM 30.2 °F 19.8 °F 8.6 °F 40% 30.08 in 10.0 mi WNW 13.8 mph 27.6 mph N/A   Mostly Cloudy
3:35 PM 28.4 °F 18.0 °F 8.6 °F 43% 30.09 in 10.0 mi WNW 12.7 mph 24.2 mph N/A   Scattered Clouds
3:55 PM 28.4 °F 17.5 °F 8.6 °F 43% 30.11 in 10.0 mi WNW 13.8 mph 24.2 mph N/A   Mostly Cloudy
4:15 PM 28.4 °F 15.4 °F 6.8 °F 40% 30.12 in 10.0 mi WNW 19.6 mph 27.6 mph N/A   Scattered Clouds
4:35 PM 28.4 °F 17.0 °F 6.8 °F 40% 30.13 in 10.0 mi WNW 15.0 mph 29.9 mph N/A   Scattered Clouds
4:55 PM 28.4 °F 16.2 °F 6.8 °F 40% 30.15 in 10.0 mi WNW 17.3 mph 26.5 mph N/A   Partly Cloudy
5:15 PM 28.4 °F 17.5 °F 6.8 °F 40% 30.16 in 10.0 mi WNW 13.8 mph 26.5 mph N/A   Scattered Clouds
5:35 PM 26.6 °F 14.3 °F 6.8 °F 43% 30.17 in 10.0 mi WNW 16.1 mph 25.3 mph N/A   Scattered Clouds
5:55 PM 26.6 °F 15.2 °F 6.8 °F 43% 30.18 in 10.0 mi WNW 13.8 mph 26.5 mph N/A   Scattered Clouds
6:15 PM 26.6 °F 15.2 °F 6.8 °F 43% 30.20 in 10.0 mi WNW 13.8 mph 23.0 mph N/A   Scattered Clouds
6:35 PM 26.6 °F 13.4 °F 5.0 °F 40% 30.21 in 10.0 mi WNW 18.4 mph 29.9 mph N/A   Partly Cloudy
6:55 PM 26.6 °F 14.3 °F 5.0 °F 40% 30.22 in 10.0 mi WNW 16.1 mph 24.2 mph N/A   Partly Cloudy
7:15 PM 26.6 °F 14.7 °F 6.8 °F 43% 30.23 in 10.0 mi WNW 15.0 mph 26.5 mph N/A   Scattered Clouds
7:35 PM 26.6 °F 13.4 °F 6.8 °F 43% 30.24 in 10.0 mi WNW 18.4 mph 26.5 mph N/A   Scattered Clouds
7:55 PM 26.6 °F 13.4 °F 6.8 °F 43% 30.25 in 10.0 mi WNW 18.4 mph 26.5 mph N/A   Partly Cloudy
8:15 PM 26.6 °F 14.3 °F 6.8 °F 43% 30.26 in 10.0 mi West 16.1 mph 28.8 mph N/A   Partly Cloudy
8:35 PM 24.8 °F 11.5 °F 6.8 °F 46% 30.27 in 10.0 mi WNW 17.3 mph 26.5 mph N/A   Partly Cloudy
8:55 PM 24.8 °F 11.5 °F 6.8 °F 46% 30.27 in 10.0 mi WNW 17.3 mph 27.6 mph N/A   Clear
9:15 PM 24.8 °F 13.4 °F 6.8 °F 46% 30.28 in 10.0 mi WNW 12.7 mph 21.9 mph N/A   Partly Cloudy
9:35 PM 24.8 °F 12.4 °F 6.8 °F 46% 30.29 in 10.0 mi WNW 15.0 mph 24.2 mph N/A   Clear
9:55 PM 24.8 °F 12.9 °F 6.8 °F 46% 30.29 in 10.0 mi WNW 13.8 mph 26.5 mph N/A   Clear
10:15 PM 24.8 °F 12.4 °F 6.8 °F 46% 30.30 in 10.0 mi WNW 15.0 mph 20.7 mph N/A   Clear
10:35 PM 24.8 °F 12.9 °F 6.8 °F 46% 30.32 in 10.0 mi WNW 13.8 mph 19.6 mph N/A   Clear
10:55 PM 24.8 °F 11.9 °F 6.8 °F 46% 30.32 in 10.0 mi WNW 16.1 mph 24.2 mph N/A   Clear
11:15 PM 23.0 °F 10.1 °F 6.8 °F 50% 30.33 in 10.0 mi West 15.0 mph 23.0 mph N/A   Clear
11:35 PM 23.0 °F 11.7 °F 5.0 °F 46% 30.33 in 10.0 mi WNW 11.5 mph 26.5 mph N/A   Clear
11:55 PM 23.0 °F 9.6 °F 6.8 °F 50% 30.33 in 10.0 mi WNW 16.1 mph 25.3 mph N/A   Clear